Time,TemperatureF,DewpointF,PressureIn,WindDirection,WindDirectionDegrees,WindSpeedMPH,WindSpeedGustMPH,Humidity,HourlyPrecipIn,Conditions,Clouds,dailyrainin,SoftwareType,DateUTC
2013-03-14 00:00:00,40.0,32.0,-100.00,WNW,290,11.0,18.0,73,-99.99,,,-99.99,,2013-03-14 04:00:00,
2013-03-14 00:01:00,41.0,31.0,-100.00,WNW,300,11.0,16.0,67,-99.99,,,-99.99,,2013-03-14 04:01:00,
2013-03-14 00:11:00,40.0,32.0,-100.00,WNW,290,11.0,18.0,73,-99.99,,,-99.99,,2013-03-14 04:11:00,
2013-03-14 00:21:00,40.0,32.0,-100.00,WNW,290,11.0,18.0,73,-99.99,,,-99.99,,2013-03-14 04:21:00,
2013-03-14 00:32:00,40.0,32.0,-100.00,WNW,290,11.0,18.0,73,-99.99,,,-99.99,,2013-03-14 04:32:00,
2013-03-14 00:41:00,40.0,32.0,-100.00,WNW,290,11.0,18.0,73,-99.99,,,-99.99,,2013-03-14 04:41:00,
2013-03-14 00:52:00,40.0,32.0,-100.00,WNW,290,11.0,18.0,73,-99.99,,,-99.99,,2013-03-14 04:52:00,
2013-03-14 01:11:00,40.0,31.0,-100.00,WNW,290,16.0,20.0,70,-99.99,,,-99.99,,2013-03-14 05:11:00,
2013-03-14 01:21:00,40.0,31.0,-100.00,WNW,290,16.0,20.0,70,-99.99,,,-99.99,,2013-03-14 05:21:00,
2013-03-14 01:32:00,39.0,31.0,-100.00,WNW,290,13.0,18.0,71,-99.99,,,-99.99,,2013-03-14 05:32:00,
2013-03-14 01:41:00,39.0,31.0,-100.00,WNW,290,13.0,18.0,71,-99.99,,,-99.99,,2013-03-14 05:41:00,
2013-03-14 02:01:00,39.0,31.0,-100.00,WNW,290,13.0,18.0,71,-99.99,,,-99.99,,2013-03-14 06:01:00,
2013-03-14 02:21:00,39.0,31.0,-100.00,West,280,11.0,16.0,74,-99.99,,,-99.99,,2013-03-14 06:21:00,
2013-03-14 02:31:00,38.0,32.0,-100.00,West,280,11.0,13.0,76,-99.99,,,-99.99,,2013-03-14 06:31:00,
2013-03-14 02:41:00,38.0,32.0,-100.00,West,280,11.0,13.0,76,-99.99,,,-99.99,,2013-03-14 06:41:00,
2013-03-14 02:52:00,38.0,32.0,-100.00,West,280,11.0,13.0,76,-99.99,,,-99.99,,2013-03-14 06:52:00,
2013-03-14 03:01:00,38.0,32.0,-100.00,West,280,11.0,13.0,76,-99.99,,,-99.99,,2013-03-14 07:01:00,
2013-03-14 03:21:00,38.0,31.0,-100.00,West,280,11.0,13.0,75,-99.99,,,-99.99,,2013-03-14 07:21:00,
2013-03-14 03:31:00,38.0,31.0,-100.00,West,280,11.0,13.0,76,-99.99,,,-99.99,,2013-03-14 07:31:00,
2013-03-14 03:41:00,38.0,31.0,-100.00,West,280,11.0,13.0,76,-99.99,,,-99.99,,2013-03-14 07:41:00,
2013-03-14 03:52:00,38.0,31.0,-100.00,West,280,11.0,13.0,76,-99.99,,,-99.99,,2013-03-14 07:52:00,
2013-03-14 04:01:00,38.0,31.0,-100.00,West,280,11.0,13.0,76,-99.99,,,-99.99,,2013-03-14 08:01:00,
2013-03-14 04:21:00,38.0,31.0,-100.00,West,280,13.0,18.0,76,-99.99,,,-99.99,,2013-03-14 08:21:00,
2013-03-14 04:31:00,37.0,29.0,-100.00,West,270,22.0,27.0,71,-99.99,,,-99.99,,2013-03-14 08:31:00,
2013-03-14 04:41:00,37.0,29.0,-100.00,West,270,22.0,27.0,71,-99.99,,,-99.99,,2013-03-14 08:41:00,
2013-03-14 04:51:00,37.0,29.0,-100.00,West,270,22.0,27.0,71,-99.99,,,-99.99,,2013-03-14 08:51:00,
2013-03-14 05:01:00,37.0,29.0,-100.00,West,270,22.0,27.0,71,-99.99,,,-99.99,,2013-03-14 09:01:00,
2013-03-14 05:22:00,36.0,27.0,-100.00,West,280,22.0,27.0,70,-99.99,,,-99.99,,2013-03-14 09:22:00,
2013-03-14 05:31:00,35.0,25.0,-100.00,West,280,22.0,27.0,65,-99.99,,,-99.99,,2013-03-14 09:31:00,
2013-03-14 05:41:00,35.0,25.0,-100.00,West,280,22.0,27.0,65,-99.99,,,-99.99,,2013-03-14 09:41:00,
2013-03-14 05:51:00,35.0,25.0,-100.00,West,280,22.0,27.0,65,-99.99,,,-99.99,,2013-03-14 09:51:00,
2013-03-14 06:01:00,35.0,25.0,-100.00,West,280,22.0,27.0,65,-99.99,,,-99.99,,2013-03-14 10:01:00,
2013-03-14 06:21:00,35.0,24.0,-100.00,West,280,22.0,27.0,64,-99.99,,,-99.99,,2013-03-14 10:21:00,
2013-03-14 06:31:00,35.0,23.0,-100.00,West,280,22.0,25.0,60,-99.99,,,-99.99,,2013-03-14 10:31:00,
2013-03-14 06:41:00,35.0,23.0,-100.00,West,280,22.0,25.0,60,-99.99,,,-99.99,,2013-03-14 10:41:00,
2013-03-14 06:52:00,35.0,23.0,-100.00,West,280,22.0,25.0,60,-99.99,,,-99.99,,2013-03-14 10:52:00,
2013-03-14 07:01:00,35.0,23.0,-100.00,West,280,22.0,25.0,60,-99.99,,,-99.99,,2013-03-14 11:01:00,
2013-03-14 07:11:00,35.0,20.0,-100.00,West,280,22.0,27.0,55,-99.99,,,-99.99,,2013-03-14 11:11:00,
2013-03-14 07:21:00,35.0,20.0,-100.00,West,280,22.0,27.0,55,-99.99,,,-99.99,,2013-03-14 11:21:00,
2013-03-14 07:31:00,34.0,19.0,-100.00,West,270,25.0,29.0,53,-99.99,,,-99.99,,2013-03-14 11:31:00,
2013-03-14 07:41:00,34.0,19.0,-100.00,West,270,25.0,29.0,53,-99.99,,,-99.99,,2013-03-14 11:41:00,
2013-03-14 07:52:00,34.0,19.0,-100.00,West,270,25.0,29.0,53,-99.99,,,-99.99,,2013-03-14 11:52:00,
2013-03-14 08:01:00,34.0,19.0,-100.00,West,270,25.0,29.0,53,-99.99,,,-99.99,,2013-03-14 12:01:00,
2013-03-14 08:11:00,33.0,18.0,-100.00,West,280,27.0,31.0,52,-99.99,,,-99.99,,2013-03-14 12:11:00,
2013-03-14 08:21:00,33.0,18.0,-100.00,West,280,27.0,31.0,52,-99.99,,,-99.99,,2013-03-14 12:21:00,
2013-03-14 08:42:00,33.0,18.0,-100.00,West,270,25.0,29.0,52,-99.99,,,-99.99,,2013-03-14 12:42:00,
2013-03-14 08:51:00,33.0,18.0,-100.00,West,270,25.0,29.0,52,-99.99,,,-99.99,,2013-03-14 12:51:00,
2013-03-14 09:01:00,33.0,18.0,-100.00,West,270,25.0,29.0,52,-99.99,,,-99.99,,2013-03-14 13:01:00,
2013-03-14 09:21:00,33.0,17.0,-100.00,West,280,25.0,29.0,52,-99.99,,,-99.99,,2013-03-14 13:21:00,
2013-03-14 09:31:00,33.0,17.0,-100.00,West,280,20.0,27.0,52,-99.99,,,-99.99,,2013-03-14 13:31:00,
2013-03-14 09:41:00,33.0,17.0,-100.00,West,280,20.0,27.0,52,-99.99,,,-99.99,,2013-03-14 13:41:00,
2013-03-14 09:52:00,33.0,17.0,-100.00,West,280,20.0,27.0,52,-99.99,,,-99.99,,2013-03-14 13:52:00,
2013-03-14 10:00:00,32.0,18.0,-100.00,West,270,22.0,29.0,54,-99.99,,,-99.99,,2013-03-14 14:00:00,
2013-03-14 10:01:00,33.0,17.0,-100.00,West,280,20.0,27.0,52,-99.99,,,-99.99,,2013-03-14 14:01:00,
2013-03-14 10:21:00,32.0,18.0,-100.00,West,270,22.0,29.0,54,-99.99,,,-99.99,,2013-03-14 14:21:00,
2013-03-14 10:31:00,32.0,18.0,-100.00,West,270,22.0,29.0,54,-99.99,,,-99.99,,2013-03-14 14:31:00,
2013-03-14 10:42:00,32.0,18.0,-100.00,West,270,22.0,29.0,54,-99.99,,,-99.99,,2013-03-14 14:42:00,
2013-03-14 11:11:00,31.0,18.0,-100.00,West,270,22.0,29.0,57,-99.99,,,-99.99,,2013-03-14 15:11:00,
2013-03-14 11:21:00,31.0,18.0,-100.00,West,270,22.0,29.0,57,-99.99,,,-99.99,,2013-03-14 15:21:00,
2013-03-14 11:32:00,30.0,17.0,-100.00,West,280,22.0,29.0,56,-99.99,,,-99.99,,2013-03-14 15:32:00,
2013-03-14 11:42:00,30.0,17.0,-100.00,West,280,22.0,29.0,56,-99.99,,,-99.99,,2013-03-14 15:42:00,
2013-03-14 11:52:00,30.0,17.0,-100.00,West,280,22.0,29.0,56,-99.99,,,-99.99,,2013-03-14 15:52:00,
2013-03-14 12:02:00,30.0,17.0,-100.00,West,280,22.0,29.0,56,-99.99,,,-99.99,,2013-03-14 16:02:00,
2013-03-14 12:12:00,30.0,15.0,-100.00,WNW,290,20.0,27.0,52,-99.99,,,-99.99,,2013-03-14 16:12:00,
2013-03-14 12:22:00,30.0,15.0,-100.00,WNW,290,20.0,27.0,52,-99.99,,,-99.99,,2013-03-14 16:22:00,
2013-03-14 12:32:00,30.0,15.0,-100.00,WNW,290,22.0,27.0,51,-99.99,,,-99.99,,2013-03-14 16:32:00,
2013-03-14 12:41:00,30.0,15.0,-100.00,WNW,290,22.0,27.0,51,-99.99,,,-99.99,,2013-03-14 16:41:00,
2013-03-14 12:51:00,30.0,15.0,-100.00,WNW,290,22.0,27.0,51,-99.99,,,-99.99,,2013-03-14 16:51:00,
2013-03-14 13:01:00,30.0,15.0,-100.00,WNW,290,22.0,27.0,51,-99.99,,,-99.99,,2013-03-14 17:01:00,
2013-03-14 13:11:00,30.0,14.0,-100.00,WNW,290,22.0,27.0,50,-99.99,,,-99.99,,2013-03-14 17:11:00,
2013-03-14 13:22:00,30.0,14.0,-100.00,WNW,290,22.0,27.0,50,-99.99,,,-99.99,,2013-03-14 17:22:00,
2013-03-14 13:31:00,31.0,14.0,-100.00,West,280,22.0,27.0,49,-99.99,,,-99.99,,2013-03-14 17:31:00,
2013-03-14 13:41:00,31.0,14.0,-100.00,West,280,22.0,27.0,49,-99.99,,,-99.99,,2013-03-14 17:41:00,
2013-03-14 13:52:00,31.0,14.0,-100.00,West,280,22.0,27.0,49,-99.99,,,-99.99,,2013-03-14 17:52:00,
2013-03-14 14:01:00,31.0,14.0,-100.00,West,280,22.0,27.0,49,-99.99,,,-99.99,,2013-03-14 18:01:00,
2013-03-14 14:11:00,31.0,13.0,-100.00,West,270,22.0,27.0,47,-99.99,,,-99.99,,2013-03-14 18:11:00,
2013-03-14 14:32:00,32.0,14.0,-100.00,West,280,22.0,29.0,47,-99.99,,,-99.99,,2013-03-14 18:32:00,
2013-03-14 14:41:00,32.0,14.0,-100.00,West,280,22.0,29.0,47,-99.99,,,-99.99,,2013-03-14 18:41:00,
2013-03-14 14:51:00,32.0,14.0,-100.00,West,280,22.0,29.0,47,-99.99,,,-99.99,,2013-03-14 18:51:00,
2013-03-14 15:01:00,32.0,14.0,-100.00,West,280,22.0,29.0,47,-99.99,,,-99.99,,2013-03-14 19:01:00,
2013-03-14 15:31:00,32.0,16.0,-100.00,West,280,22.0,31.0,49,-99.99,,,-99.99,,2013-03-14 19:31:00,
2013-03-14 15:42:00,32.0,16.0,-100.00,West,280,22.0,31.0,49,-99.99,,,-99.99,,2013-03-14 19:42:00,
2013-03-14 15:51:00,32.0,16.0,-100.00,West,280,22.0,31.0,49,-99.99,,,-99.99,,2013-03-14 19:51:00,
2013-03-14 16:01:00,32.0,16.0,-100.00,West,280,22.0,31.0,49,-99.99,,,-99.99,,2013-03-14 20:01:00,
2013-03-14 16:11:00,33.0,16.0,-100.00,West,280,22.0,29.0,49,-99.99,,,-99.99,,2013-03-14 20:11:00,
2013-03-14 16:21:00,33.0,16.0,-100.00,West,280,22.0,29.0,49,-99.99,,,-99.99,,2013-03-14 20:21:00,
2013-03-14 16:31:00,33.0,16.0,-100.00,West,280,22.0,29.0,49,-99.99,,,-99.99,,2013-03-14 20:31:00,
2013-03-14 16:41:00,33.0,16.0,-100.00,West,280,22.0,29.0,49,-99.99,,,-99.99,,2013-03-14 20:41:00,
2013-03-14 16:51:00,33.0,16.0,-100.00,West,280,22.0,29.0,49,-99.99,,,-99.99,,2013-03-14 20:51:00,
2013-03-14 17:01:00,33.0,16.0,-100.00,West,280,22.0,29.0,49,-99.99,,,-99.99,,2013-03-14 21:01:00,
2013-03-14 17:21:00,33.0,17.0,-100.00,WNW,290,25.0,31.0,49,-99.99,,,-99.99,,2013-03-14 21:21:00,
2013-03-14 17:32:00,33.0,16.0,-100.00,WNW,290,25.0,34.0,48,-99.99,,,-99.99,,2013-03-14 21:32:00,
2013-03-14 17:43:00,33.0,16.0,-100.00,WNW,290,25.0,34.0,48,-99.99,,,-99.99,,2013-03-14 21:43:00,
2013-03-14 17:52:00,33.0,16.0,-100.00,WNW,290,25.0,34.0,48,-99.99,,,-99.99,,2013-03-14 21:52:00,
2013-03-14 18:00:00,34.0,17.0,-100.00,WNW,290,22.0,29.0,49,-99.99,,,-99.99,,2013-03-14 22:00:00,
2013-03-14 18:03:00,33.0,16.0,-100.00,WNW,290,25.0,34.0,48,-99.99,,,-99.99,,2013-03-14 22:03:00,
2013-03-14 18:12:00,34.0,17.0,-100.00,WNW,290,22.0,29.0,49,-99.99,,,-99.99,,2013-03-14 22:12:00,
2013-03-14 18:22:00,34.0,17.0,-100.00,WNW,290,22.0,29.0,49,-99.99,,,-99.99,,2013-03-14 22:22:00,
2013-03-14 18:32:00,34.0,17.0,-100.00,WNW,290,22.0,29.0,49,-99.99,,,-99.99,,2013-03-14 22:32:00,
2013-03-14 18:41:00,34.0,17.0,-100.00,WNW,290,22.0,29.0,49,-99.99,,,-99.99,,2013-03-14 22:41:00,
2013-03-14 18:52:00,34.0,17.0,-100.00,WNW,290,22.0,29.0,49,-99.99,,,-99.99,,2013-03-14 22:52:00,
2013-03-14 19:11:00,35.0,17.0,-100.00,WNW,290,25.0,31.0,48,-99.99,,,-99.99,,2013-03-14 23:11:00,
2013-03-14 19:21:00,35.0,17.0,-100.00,WNW,290,25.0,31.0,48,-99.99,,,-99.99,,2013-03-14 23:21:00,
2013-03-14 19:32:00,35.0,17.0,-100.00,WNW,290,27.0,31.0,48,-99.99,,,-99.99,,2013-03-14 23:32:00,
2013-03-14 19:42:00,35.0,17.0,-100.00,WNW,290,27.0,31.0,48,-99.99,,,-99.99,,2013-03-14 23:42:00,
2013-03-14 19:52:00,35.0,17.0,-100.00,WNW,290,27.0,31.0,48,-99.99,,,-99.99,,2013-03-14 23:52:00,
2013-03-14 20:01:00,35.0,17.0,-100.00,WNW,290,27.0,31.0,48,-99.99,,,-99.99,,2013-03-15 00:01:00,
2013-03-14 20:21:00,35.0,17.0,-100.00,WNW,300,22.0,27.0,48,-99.99,,,-99.99,,2013-03-15 00:21:00,
2013-03-14 20:31:00,35.0,17.0,-100.00,WNW,300,25.0,31.0,47,-99.99,,,-99.99,,2013-03-15 00:31:00,
2013-03-14 20:41:00,35.0,17.0,-100.00,WNW,300,25.0,31.0,47,-99.99,,,-99.99,,2013-03-15 00:41:00,
2013-03-14 20:51:00,35.0,17.0,-100.00,WNW,300,25.0,31.0,47,-99.99,,,-99.99,,2013-03-15 00:51:00,
2013-03-14 21:01:00,35.0,17.0,-100.00,WNW,300,25.0,31.0,47,-99.99,,,-99.99,,2013-03-15 01:01:00,
2013-03-14 21:21:00,34.0,18.0,-100.00,NW,320,22.0,27.0,51,-99.99,,,-99.99,,2013-03-15 01:21:00,
2013-03-14 21:31:00,33.0,20.0,-100.00,NNW,330,22.0,29.0,58,-99.99,,,-99.99,,2013-03-15 01:31:00,
2013-03-14 21:41:00,33.0,20.0,-100.00,NNW,330,22.0,29.0,58,-99.99,,,-99.99,,2013-03-15 01:41:00,
2013-03-14 21:52:00,33.0,20.0,-100.00,NNW,330,22.0,29.0,58,-99.99,,,-99.99,,2013-03-15 01:52:00,
2013-03-14 22:01:00,33.0,20.0,-100.00,NNW,330,22.0,29.0,58,-99.99,,,-99.99,,2013-03-15 02:01:00,
2013-03-14 22:32:00,32.0,19.0,-100.00,NW,310,20.0,25.0,57,-99.99,,,-99.99,,2013-03-15 02:32:00,
2013-03-14 22:41:00,32.0,19.0,-100.00,NW,310,20.0,25.0,57,-99.99,,,-99.99,,2013-03-15 02:41:00,
2013-03-14 22:51:00,32.0,19.0,-100.00,NW,310,20.0,25.0,57,-99.99,,,-99.99,,2013-03-15 02:51:00,
2013-03-14 23:01:00,32.0,19.0,-100.00,NW,310,20.0,25.0,57,-99.99,,,-99.99,,2013-03-15 03:01:00,
2013-03-14 23:21:00,32.0,18.0,-100.00,NW,310,18.0,22.0,54,-99.99,,,-99.99,,2013-03-15 03:21:00,
2013-03-14 23:32:00,32.0,17.0,-100.00,NW,310,18.0,22.0,53,-99.99,,,-99.99,,2013-03-15 03:32:00,
2013-03-14 23:42:00,32.0,17.0,-100.00,NW,310,18.0,22.0,53,-99.99,,,-99.99,,2013-03-15 03:42:00,
2013-03-14 23:52:00,32.0,17.0,-100.00,NW,310,18.0,22.0,53,-99.99,,,-99.99,,2013-03-15 03:52:00,